Regional Weather Roundup
Issued by NWS

Home | Current Version | Previous Version | Graphics & Text | Print | Product List | Glossary On
Versions: 1 2 3 4 5 6 7 8 9 10 11 12 13 14 15 16 17 18 19 20 21 22 23 24 25 26 27 28 29 30 31 32 33 34 35 36 37 38 39 40 41 42 43 44 45 46 47 48 49 50
000
ASUS43 KFSD 300602
RWRSD

WEATHER ROUNDUP FOR SOUTH DAKOTA
NATIONAL WEATHER SERVICE SIOUX FALLS SD
100 AM CDT TUE SEP 30 2014

NOTE: "FAIR" INDICATES FEW OR NO CLOUDS BELOW 12,000 FEET WITH NO
SIGNIFICANT WEATHER AND/OR OBSTRUCTIONS TO VISIBILITY.


SDZ001>005-009-010-012>017-300700-
NORTHWEST AND NORTH CENTRAL SOUTH DAKOTA

CITY           SKY/WX    TMP DP  RH WIND       PRES   REMARKS
BUFFALO          N/A     53  52  96 E9        29.75F
FAITH            N/A     55  54  96 E13       29.82F
MOBRIDGE       CLOUDY    57  52  83 SE13      29.85F
$$

SDZ012>016-024>037-041>051-057-063-072>074-300700-
SOUTHWEST AND SOUTH CENTRAL SOUTH DAKOTA

CITY           SKY/WX    TMP DP  RH WIND       PRES   REMARKS
RAPID CTY ARPT HVY RAIN  52  52 100 N9        29.77F FOG
PIERRE         MOCLDY    59  55  87 SE22G32   29.80F
CUSTER         HVY RAIN  50  48  93 NE9       29.78F FOG
PHILIP         CLOUDY    61  59  93 E16       29.73F
PINE RIDGE     LGT RAIN  60  57  89 SE9G17    29.68F
WINNER         FAIR      66  60  81 SE22      29.80F
$$

SDZ004>011-016>023-039-040-300700-
NORTHEAST SOUTH DAKOTA

CITY           SKY/WX    TMP DP  RH WIND       PRES   REMARKS
ABERDEEN       MOCLDY    52  48  86 E8        29.95F
WATERTOWN      MOCLDY    49  45  86 SE10G21   30.00F
SISSETON         N/A     49  46  90 SE10      30.01F
$$

SDZ017-020-022-023-036>040-048>070-300700-
SOUTHEAST SOUTH DAKOTA

CITY           SKY/WX    TMP DP  RH WIND       PRES   REMARKS
SIOUX FALLS    CLOUDY    54  50  86 E12       30.00S
HURON          PTCLDY    55  49  80 SE16      29.93F
CHAMBERLAIN    CLOUDY    59  56  91 E17G25    29.85F
MITCHELL       MOCLDY    58  54  86 SE14      29.93F
YANKTON        MOCLDY    61  57  88 E10       29.95F
$$

ABBREVIATIONS USED IN REMARKS
   TC - TEMPERATURE IN CELSIUS
  WCI - WIND CHILL INDEX
   HX - HEAT INDEX
  VSB - VISIBILITY




USA.gov is the U.S. government's official web portal to all federal, state and local government web resources and services.